SCOUT A DEB, 2702

Orbit data source: Space-Track

SCOUT A DEB, 2702 is space debris in LEO originally from a launch on Thu, 18 Aug 1966 UTC launched from the Air Force Western Test Range (AFWTR). Debris objects in space refer to the collection of defunct objects orbiting the Earth. Examples of debris include non-operational satellites, rocket bodies, and fragments generated from explosions, collisions, or faulty payload assembly.

Loading next visibility...
Identifier
2702, 1966-076D
Orbit
LEO
Country
Flag of USUS
Related business
Manufacturer
Unknown
Mission
Spacecraft
Bus & Motor
Unknown
Mass
Unknown
Launch date (UTC)
1966-08-18 (60 years ago)
Launch vehicle
Unknown
Launch site
Air Force Western Test Range (AFWTR)
Object type
Payload
Rocket body
Debris
Shape & HBR
Unknown shape, 0.1 m
Radar Cross Section
Medium (>0.1 m² and <1 m²)

Expand to show TLE details & history
Last TLE update: 3 days ago

TLE from 3 days ago
0 SCOUT A DEB
1 02702U 66076D   26234.54065001  .00000134  00000-0  22782-3 0  9996
2 02702  88.5610 248.4884 0090203  89.8132  64.3255 13.36568613905195
Epoch: 2026-08-22T12:58Z
TLE epoch observation values (Epoch: 2026-08-22T12:58:32.160Z)
Latitude
24.94252°
Longitude
-97.66117°
Altitude
1,096.324 km
Speed
7.32 km/s
True Right ascension
04h 31m 17s
True Declination
24° 49' 02"
Sunlit
Object was in daylight at epoch
Visualization orbit readout
Latitude
Unknown
Longitude
Unknown
Altitude
Unknown
Speed
Unknown
Apparent Right ascension
Unknown
Apparent Declination
Unknown
Sunlit
N/A
Visualization observer readout
Local Sidereal Time
01:49:10
Azimuth
Unknown
Elevation
Unknown
Doppler factor
Unknown
Orbital elements
Apogee altitude
1,186.791 km
Perigee altitude
1,051.535 km
Semi-major axis
7,497.3 km
Eccentricity
0.00902
Inclination
88.561°
RAAN
248.4884°
Arg. of periapsis
89.8132°
True anomaly
65.26163°
Mean anomaly
64.3255°
Eccentric anomaly
64.79311°
Mean motion
3.34338 °/min
Orbital period
107.68 mins
BSTAR
0.00022782
Loading maneuver chart data...
Computing Atmospheric mass density...
Loading historical data...
Loading historical data...
Loading historical data...
Loading historical data...
Loading historical data...
Loading historical data...
Loading historical data...

Documentation

Showing up to 5 results
|